• In Deutschland
  • Länderverzeichnis
  • Für 7 Tage
  • Wassertemperatur
  • Satellitenkarten
  • Wetterkarte
  • Widgets
  • user-avatar
    Anmelden

    Stündliche Wetter Darwin

    Heute, 24 Juni, Samstag

    Zeit Temperatur Niederschläge Wind Luftdruck Luftfeuchtigkeit
    00:00 +24°C° 0 mm 2 m/S 759 mmHg 81%
    01:00 +24°C° 0 mm 2 m/S 759 mmHg 78%
    02:00 +22°C° 0 mm 3 m/S 759 mmHg 75%
    03:00 +22°C° 0 mm 3 m/S 759 mmHg 72%
    04:00 +22°C° 0 mm 4 m/S 759 mmHg 74%
    05:00 +21°C° 0 mm 4 m/S 759 mmHg 77%
    06:00 +21°C° 0 mm 4 m/S 759 mmHg 80%
    07:00 +22°C° 0 mm 5 m/S 759 mmHg 75%
    08:00 +25°C° 0 mm 5 m/S 759 mmHg 71%
    09:00 +27°C° 0 mm 4 m/S 760 mmHg 66%
    10:00 +29°C° 0 mm 4 m/S 759 mmHg 55%
    11:00 +32°C° 0 mm 4 m/S 759 mmHg 44%
    12:00 +34°C° 0 mm 5 m/S 759 mmHg 32%
    13:00 +35°C° 0 mm 4 m/S 758 mmHg 31%
    14:00 +35°C° 0 mm 4 m/S 757 mmHg 29%
    15:00 +35°C° 0 mm 3 m/S 757 mmHg 30%
    16:00 +31°C° 0 mm 3 m/S 757 mmHg 37%
    17:00 +29°C° 0 mm 3 m/S 757 mmHg 44%
    18:00 +27°C° 0 mm 3 m/S 757 mmHg 51%
    19:00 +26°C° 0 mm 3 m/S 757 mmHg 54%
    20:00 +25°C° 0 mm 3 m/S 758 mmHg 57%
    21:00 +24°C° 0 mm 2 m/S 758 mmHg 60%
    22:00 +23°C° 0 mm 2 m/S 758 mmHg 59%
    23:00 +22°C° 0 mm 3 m/S 758 mmHg 59%

    Morgen, 25 Juni, Sonntag

    Zeit Temperatur Niederschläge Wind Luftdruck Luftfeuchtigkeit
    00:00 +22°C° 0 mm 3 m/S 759 mmHg 58%
    01:00 +22°C° 0 mm 3 m/S 759 mmHg 60%
    02:00 +21°C° 0 mm 3 m/S 759 mmHg 61%
    03:00 +21°C° 0 mm 4 m/S 759 mmHg 63%
    04:00 +21°C° 0 mm 4 m/S 759 mmHg 68%
    05:00 +20°C° 0 mm 4 m/S 759 mmHg 74%
    06:00 +20°C° 0 mm 4 m/S 759 mmHg 79%
    07:00 +21°C° 0 mm 4 m/S 759 mmHg 72%
    08:00 +23°C° 0 mm 4 m/S 759 mmHg 64%
    09:00 +26°C° 0 mm 5 m/S 760 mmHg 57%
    10:00 +28°C° 0 mm 5 m/S 759 mmHg 49%
    11:00 +30°C° 0 mm 5 m/S 759 mmHg 40%
    12:00 +34°C° 0 mm 5 m/S 759 mmHg 31%
    13:00 +34°C° 0 mm 4 m/S 758 mmHg 30%
    14:00 +35°C° 0 mm 4 m/S 758 mmHg 29%
    15:00 +35°C° 0 mm 4 m/S 757 mmHg 28%
    16:00 +33°C° 0 mm 4 m/S 757 mmHg 35%
    17:00 +30°C° 0 mm 4 m/S 757 mmHg 42%
    18:00 +27°C° 0 mm 3 m/S 758 mmHg 50%
    19:00 +26°C° 0 mm 3 m/S 758 mmHg 55%
    20:00 +25°C° 0 mm 3 m/S 759 mmHg 60%
    21:00 +23°C° 0 mm 2 m/S 759 mmHg 65%
    22:00 +23°C° 0 mm 2 m/S 759 mmHg 70%
    23:00 +21°C° 0 mm 2 m/S 759 mmHg 74%

    übermorgen, 26 Juni, Montag

    Zeit Temperatur Niederschläge Wind Luftdruck Luftfeuchtigkeit
    00:00 +21°C° 0 mm 2 m/S 760 mmHg 79%
    01:00 +21°C° 0 mm 2 m/S 759 mmHg 78%
    02:00 +21°C° 0 mm 3 m/S 759 mmHg 77%
    03:00 +21°C° 0 mm 3 m/S 759 mmHg 77%
    04:00 +21°C° 0 mm 3 m/S 759 mmHg 77%
    05:00 +21°C° 0 mm 4 m/S 759 mmHg 78%
    06:00 +21°C° 0 mm 4 m/S 759 mmHg 79%
    07:00 +22°C° 0 mm 4 m/S 760 mmHg 75%
    08:00 +23°C° 0 mm 4 m/S 760 mmHg 71%
    09:00 +26°C° 0 mm 4 m/S 761 mmHg 68%
    10:00 +28°C° 0 mm 4 m/S 760 mmHg 58%
    11:00 +30°C° 0 mm 4 m/S 760 mmHg 48%
    12:00 +33°C° 0 mm 4 m/S 760 mmHg 39%
    13:00 +34°C° 0 mm 4 m/S 759 mmHg 36%
    14:00 +34°C° 0 mm 3 m/S 759 mmHg 34%
    15:00 +35°C° 0 mm 3 m/S 758 mmHg 32%
    16:00 +33°C° 0 mm 3 m/S 758 mmHg 40%
    17:00 +29°C° 0 mm 3 m/S 758 mmHg 47%
    18:00 +27°C° 0 mm 3 m/S 759 mmHg 55%
    19:00 +26°C° 0 mm 3 m/S 759 mmHg 60%
    20:00 +25°C° 0 mm 2 m/S 760 mmHg 64%
    21:00 +24°C° 0 mm 2 m/S 760 mmHg 69%
    22:00 +24°C° 0 mm 2 m/S 760 mmHg 70%
    23:00 +24°C° 0 mm 2 m/S 760 mmHg 71%

    27 Juni, Dienstag

    Zeit Temperatur Niederschläge Wind Luftdruck Luftfeuchtigkeit
    00:00 +24°C° 0 mm 2 m/S 760 mmHg 72%
    01:00 +23°C° 0 mm 2 m/S 760 mmHg 74%
    02:00 +23°C° 0 mm 2 m/S 760 mmHg 76%
    03:00 +23°C° 0 mm 2 m/S 760 mmHg 78%
    04:00 +21°C° 0 mm 2 m/S 760 mmHg 78%
    05:00 +21°C° 0 mm 3 m/S 760 mmHg 77%
    06:00 +21°C° 0 mm 4 m/S 760 mmHg 76%
    07:00 +23°C° 0 mm 4 m/S 760 mmHg 72%
    08:00 +26°C° 0 mm 4 m/S 761 mmHg 68%
    09:00 +28°C° 0 mm 4 m/S 761 mmHg 64%
    10:00 +30°C° 0 mm 4 m/S 761 mmHg 56%
    11:00 +32°C° 0 mm 4 m/S 760 mmHg 49%
    12:00 +34°C° 0 mm 3 m/S 760 mmHg 42%
    13:00 +35°C° 0 mm 3 m/S 759 mmHg 40%
    14:00 +35°C° 0 mm 3 m/S 758 mmHg 38%
    15:00 +36°C° 0 mm 3 m/S 758 mmHg 35%
    16:00 +34°C° 0 mm 3 m/S 758 mmHg 43%
    17:00 +31°C° 0 mm 3 m/S 758 mmHg 50%
    18:00 +29°C° 0 mm 3 m/S 758 mmHg 57%
    19:00 +27°C° 0 mm 2 m/S 759 mmHg 65%
    20:00 +25°C° 0 mm 2 m/S 760 mmHg 73%
    21:00 +24°C° 0 mm 1 m/S 760 mmHg 80%
    22:00 +24°C° 0 mm 1 m/S 760 mmHg 83%
    23:00 +23°C° 0 mm 1 m/S 760 mmHg 85%

    28 Juni, Mittwoch

    Zeit Temperatur Niederschläge Wind Luftdruck Luftfeuchtigkeit
    00:00 +23°C° 0 mm 2 m/S 760 mmHg 87%
    01:00 +23°C° 0 mm 2 m/S 760 mmHg 87%
    02:00 +23°C° 0 mm 2 m/S 759 mmHg 87%
    03:00 +23°C° 0 mm 2 m/S 759 mmHg 86%
    04:00 +23°C° 0 mm 2 m/S 759 mmHg 84%
    05:00 +22°C° 0 mm 3 m/S 760 mmHg 82%
    06:00 +22°C° 0 mm 3 m/S 760 mmHg 79%
    07:00 +25°C° 0 mm 4 m/S 760 mmHg 73%
    08:00 +26°C° 0 mm 4 m/S 761 mmHg 68%
    09:00 +28°C° 0 mm 4 m/S 761 mmHg 62%
    10:00 +30°C° 0 mm 4 m/S 761 mmHg 54%
    11:00 +33°C° 0 mm 4 m/S 760 mmHg 47%
    12:00 +34°C° 0 mm 4 m/S 760 mmHg 39%
    13:00 +35°C° 0 mm 3 m/S 759 mmHg 37%
    14:00 +35°C° 0 mm 3 m/S 759 mmHg 34%
    15:00 +36°C° 0 mm 3 m/S 758 mmHg 32%
    16:00 +34°C° 0 mm 3 m/S 758 mmHg 37%
    17:00 +31°C° 0 mm 3 m/S 759 mmHg 43%
    18:00 +29°C° 0 mm 2 m/S 759 mmHg 49%
    19:00 +28°C° 0 mm 2 m/S 759 mmHg 50%
    20:00 +27°C° 0 mm 2 m/S 760 mmHg 51%
    21:00 +26°C° 0 mm 2 m/S 761 mmHg 52%
    22:00 +25°C° 0 mm 3 m/S 761 mmHg 52%
    23:00 +25°C° 0 mm 3 m/S 761 mmHg 52%

    29 Juni, Donnerstag

    Zeit Temperatur Niederschläge Wind Luftdruck Luftfeuchtigkeit
    00:00 +25°C° 0 mm 4 m/S 760 mmHg 52%
    01:00 +23°C° 0 mm 4 m/S 760 mmHg 54%
    02:00 +23°C° 0 mm 4 m/S 760 mmHg 57%
    03:00 +22°C° 0 mm 5 m/S 760 mmHg 59%
    04:00 +22°C° 0 mm 5 m/S 760 mmHg 62%
    05:00 +22°C° 0 mm 5 m/S 760 mmHg 64%
    06:00 +21°C° 0 mm 5 m/S 760 mmHg 67%
    07:00 +23°C° 0 mm 6 m/S 761 mmHg 62%
    08:00 +24°C° 0 mm 6 m/S 761 mmHg 57%
    09:00 +27°C° 0 mm 7 m/S 762 mmHg 52%
    10:00 +29°C° 0 mm 7 m/S 761 mmHg 47%
    11:00 +30°C° 0 mm 7 m/S 761 mmHg 41%
    12:00 +33°C° 0 mm 7 m/S 760 mmHg 36%
    13:00 +34°C° 0 mm 6 m/S 759 mmHg 33%
    14:00 +34°C° 0 mm 6 m/S 759 mmHg 30%
    15:00 +35°C° 0 mm 6 m/S 758 mmHg 27%
    16:00 +33°C° 0 mm 5 m/S 758 mmHg 30%
    17:00 +32°C° 0 mm 4 m/S 759 mmHg 34%
    18:00 +29°C° 0 mm 4 m/S 759 mmHg 37%
    19:00 +28°C° 0 mm 5 m/S 760 mmHg 39%
    20:00 +27°C° 0 mm 5 m/S 760 mmHg 41%
    21:00 +26°C° 0 mm 6 m/S 761 mmHg 43%
    22:00 +24°C° 0 mm 6 m/S 761 mmHg 45%
    23:00 +24°C° 0 mm 6 m/S 761 mmHg 48%
    Mehr zeigen